Regional Weather Roundup
Issued by NWS Cleveland, OH

Home | Current Version | Previous Version | Graphics & Text | Print | Product List | Glossary On
Versions: 1 2 3 4 5 6 7 8 9 10 11 12 13 14 15 16 17 18 19 20 21 22 23 24 25 26 27 28 29 30 31 32 33 34 35 36 37 38 39 40 41 42 43 44 45 46 47 48 49 50
000
ASUS41 KCLE 191512
RWRCLE
OHIO REGIONAL WEATHER ROUNDUP
NATIONAL WEATHER SERVICE WILMINGTON, OH
1000 AM EST SUN FEB 19 2017

NOTE: "FAIR" INDICATES FEW OR NO CLOUDS BELOW 12,000 FEET WITH NO
SIGNIFICANT WEATHER AND/OR OBSTRUCTIONS TO VISIBILITY.

OHZ001>008-015>018-024>027-034-035-043-044-191600-
   NORTHWEST OHIO

CITY           SKY/WX    TMP DP  RH WIND       PRES   REMARKS
DEFIANCE       FAIR      46  41  82 SW6       30.03R
FINDLAY        CLOUDY    47  43  86 SW10      30.01R FOG
TOLEDO EXPRESS FAIR      48  39  71 W10       29.99R
TOLEDO EXEC    FAIR      50  41  71 W9        30.00R
LIMA           CLOUDY    47  46  97 SW10      30.03R FOG
$$

OHZ009>014-019>023-028>033-038-089-191600-
   NORTHEAST OHIO

CITY           SKY/WX    TMP DP  RH WIND       PRES   REMARKS
CLE-HOPKINS    FAIR      50  41  71 SW9       30.00R
CLE-LAKEFRONT  FAIR      50  40  68 SW8       29.97R
CUY CO. ARPT   PTSUNNY   52  43  71 W14       29.98R
LORAIN-ELYRIA  FAIR      48  40  73 W8        29.99R
ASHTABULA      FAIR      49  42  77 W12       29.96R
AKRON-CANTON   FAIR      48  43  82 W7        29.99R HAZE
WOOSTER        FAIR      50  43  77 W12       29.99S
MANSFIELD      FAIR      48  44  86 SW8       30.00S FOG
YOUNGSTOWN     FAIR      49  42  77 SW9       29.97R
$$

OHZ042-051>053-060>062-070>072-077>081-191600-
  SOUTHWEST OHIO

CITY           SKY/WX    TMP DP  RH WIND       PRES   REMARKS
CINC-COVINGTON CLOUDY    49  46  90 W7        30.08R
CINC-LUNKEN    CLOUDY    51  47  86 W6        30.10R
HAMILTON       CLOUDY    49  47  93 W5        30.10R FOG
DAYTON         CLOUDY    47  44  90 W8        30.07R FOG
WRIGHT-PAT AFB CLOUDY    46  46 100 W6        30.06R FOG
DAYTON GENERAL CLOUDY    46  45  96 NW7       30.07R FOG
WILMINGTON     CLOUDY    46  45  96 W9        30.06R FOG
$$

OHZ036-037-039>041-045>050-054>059-063>069-073>076-082>088-191600-
  CENTRAL AND SOUTHEAST OHIO

CITY           SKY/WX    TMP DP  RH WIND       PRES   REMARKS
COLUMBUS       CLOUDY    49  44  83 W7        30.05R HAZE
OSU AIRPORT    CLOUDY    47  46  97 W6        30.05R FOG
BOLTON FIELD   CLOUDY    46  45  93 NW3       30.06R FOG
RICKENBACK AFB CLOUDY    45  45 100 CALM      30.06R FOG
NEWARK         CLOUDY    48  44  86 W7        30.04R
MARION         CLOUDY    48  44  86 W9        30.03S FOG
LANCASTER      CLOUDY    49  44  83 W7        30.06R
ZANESVILLE     CLOUDY    50  44  80 W8        30.04R
NEW PHILLY     FAIR      50  44  80 SW7       30.02R
$$



USA.gov is the U.S. government's official web portal to all federal, state and local government web resources and services.